TimeCST,TemperatureF,Dew PointF,Humidity,Sea Level PressureIn,VisibilityMPH,Wind Direction,Wind SpeedMPH,Gust SpeedMPH,PrecipitationIn,Events,Conditions,WindDirDegrees,DateUTC
12:53 AM,39.9,34.0,79,29.93,10.0,Calm,Calm,-,N/A,,Clear,0,2013-03-03 06:53:00
1:53 AM,37.9,33.1,83,29.91,10.0,South,3.5,-,N/A,,Clear,190,2013-03-03 07:53:00
2:53 AM,35.1,30.9,85,29.89,10.0,Calm,Calm,-,N/A,,Clear,0,2013-03-03 08:53:00
3:53 AM,36.0,32.0,86,29.87,10.0,SE,3.5,-,N/A,,Clear,140,2013-03-03 09:53:00
4:53 AM,36.0,32.0,86,29.86,10.0,SSE,6.9,-,N/A,,Partly Cloudy,160,2013-03-03 10:53:00
6:53 AM,37.0,32.0,82,29.83,10.0,SE,6.9,-,N/A,,Overcast,140,2013-03-03 12:53:00
7:53 AM,37.0,33.1,86,29.81,10.0,SE,8.1,-,N/A,,Scattered Clouds,140,2013-03-03 13:53:00
8:53 AM,37.9,34.0,86,29.80,10.0,SE,9.2,-,N/A,,Clear,130,2013-03-03 14:53:00
9:53 AM,42.1,36.0,79,29.76,10.0,ESE,13.8,-,N/A,,Clear,120,2013-03-03 15:53:00
10:53 AM,43.0,37.0,80,29.74,10.0,ESE,16.1,-,N/A,,Partly Cloudy,120,2013-03-03 16:53:00
11:53 AM,45.0,37.0,74,29.71,10.0,ESE,17.3,-,N/A,,Mostly Cloudy,120,2013-03-03 17:53:00
12:53 PM,46.0,37.9,73,29.67,10.0,ESE,18.4,-,N/A,,Scattered Clouds,120,2013-03-03 18:53:00
1:53 PM,48.9,39.0,69,29.62,10.0,ESE,20.7,-,N/A,,Partly Cloudy,120,2013-03-03 19:53:00
2:53 PM,48.0,39.0,71,29.60,10.0,ESE,21.9,29.9,N/A,,Partly Cloudy,120,2013-03-03 20:53:00
3:53 PM,48.9,39.0,69,29.60,10.0,ESE,24.2,29.9,N/A,,Clear,110,2013-03-03 21:53:00
4:53 PM,46.9,37.0,68,29.59,10.0,ESE,21.9,-,N/A,,Clear,120,2013-03-03 22:53:00
5:53 PM,43.0,36.0,76,29.59,10.0,ESE,18.4,-,N/A,,Clear,110,2013-03-03 23:53:00
6:53 PM,39.9,35.1,83,29.60,10.0,ESE,17.3,-,N/A,,Clear,110,2013-03-04 00:53:00
7:53 PM,37.9,34.0,86,29.60,8.0,ESE,15.0,-,N/A,,Clear,120,2013-03-04 01:53:00
8:53 PM,36.0,33.1,89,29.59,6.0,ESE,15.0,-,N/A,,Clear,120,2013-03-04 02:53:00
9:53 PM,35.1,32.0,89,29.58,5.0,ESE,12.7,-,N/A,,Clear,120,2013-03-04 03:53:00
10:29 PM,33.8,32.0,93,29.54,5.0,ESE,11.5,-,N/A,,Partly Cloudy,120,2013-03-04 04:29:00
10:48 PM,33.8,30.2,87,29.54,5.0,ESE,10.4,-,N/A,,Mostly Cloudy,120,2013-03-04 04:48:00
10:53 PM,33.1,30.9,92,29.58,4.0,SE,11.5,-,N/A,,Mostly Cloudy,130,2013-03-04 04:53:00
11:14 PM,33.8,30.2,87,29.54,4.0,ESE,12.7,-,N/A,,Partly Cloudy,120,2013-03-04 05:14:00
11:53 PM,32.0,30.9,96,29.56,4.0,SE,12.7,-,N/A,,Clear,130,2013-03-04 05:53:00